Dewpoint
15 14 13 12 12 13 13 13 12 12 12 12 13 13 13 13 13 13 12 12 12 11 10 12 12 13 10 10 11 11 11 11 10 12 12 10 7 12 13 12 12 11 10
15 14 13 12 11 12 12 12 12 11 11 12 12 12 12 12 13 12 12 12 11 9 8 12 12 12 13 9 11 12 11 11 10 11 12 12 7 7 8 9 11 9 10
15 14 11 13 13 12 12 11 12 12 12 12 13 12 12 12 12 12 12 11 11 11 10 11 13 13 12 11 12 12 11 11 12 11 11 13 10 9 9 9 9 10 10
14 14 14 14 13 13 12 11 12 12 12 12 12 12 12 12 12 12 12 12 11 10 9 10 10 10 10 9 9 9 9 10 11 10 10 13 12 10 11 11 10 10 11
14 13 14 13 13 13 13 12 12 10 12 12 12 11 12 11 11 11 11 11 11 10 10 10 10 11 11 11 11 10 10 10 10 9 11 12 11 11 11 9 8 6 7
13 13 13 13 13 13 13 12 12 12 10 10 10 11 10 10 10 10 10 10 10 9 10 8 10 10 11 11 10 10 10 11 11 11 11 11 9 8 7 6 4 3 1
13 12 13 13 12 13 13 13 13 12 12 12 11 11 10 11 11 10 10 10 10 10 9 11 11 11 11 10 9 8 7 7 7 6 6 7 3 0 -3 -0 -2 -0 3
12 12 13 13 13 13 13 12 12 12 12 11 10 9 10 11 11 11 11 12 10 10 10 10 10 9 7 6 6 8 8 6 -0 -4 -8 -9 -10 -10 -9 -8 -7 -2 2
12 12 12 14 12 12 12 12 10 10 11 11 9 9 11 9 11 11 11 10 10 10 9 9 7 5 6 8 5 1 -5 -9 -10 -9 -8 -5 -2 -2 -3 -2 2 1 0
12 13 13 14 12 12 13 13 12 11 11 11 10 10 10 10 11 11 10 10 9 8 7 7 7 7 4 -3 -4 -4 -1 -2 -3 -2 -0 -0 -0 -1 -1 -2 -2 1 -0
12 13 13 13 13 13 13 12 12 12 11 11 10 10 10 10 10 10 9 8 7 7 7 7 4 -0 -2 -2 -2 -1 2 -0 0 2 1 1 1 2 1 -1 -2 -3 -0
12 12 13 13 13 12 11 11 12 11 11 10 9 8 7 6 6 6 6 6 2 1 0 -0 1 2 4 4 2 2 1 0 1 2 2 2 1 0 -0 -0 -4 -4 0
12 12 12 10 10 10 10 9 8 7 6 5 5 6 5 6 6 6 6 6 6 6 6 6 5 2 1 1 1 1 2 2 2 1 1 -0 -2 -3 -5 -2 -2 -1 -2
11 9 8 8 7 7 7 6 6 6 6 6 6 6 5 5 4 3 3 1 -1 -2 -2 -1 0 -0 0 0 1 0 -0 -1 -2 -2 -3 -4 -5 -6 -6 -6 -6 -6 -6
8 7 6 6 6 6 4 2 1 -1 -1 -1 -3 -4 -4 -4 -5 -5 -4 -4 -6 -5 -4 -2 -0 -1 -1 -2 -2 -2 -2 -3 -4 -4 -5 -6 -8 -9 -11 -11 -11 -11 -11
6 6 5 3 2 0 -0 -1 -2 -3 -3 -3 -3 -4 -6 -9 -9 -10 -10 -10 -9 -7 -2 -2 -2 -2 -2 -3 -3 -4 -4 -5 -5 -6 -7 -8 -10 -12 -12 -11 -10 -10 -9
4 1 1 -0 -0 -0 -2 -2 -2 -3 -3 -4 -6 -8 -9 -10 -10 -10 -11 -10 -9 -3 -3 -3 -3 -3 -3 -4 -4 -4 -5 -3 -5 -6 -7 -8 -10 -12 -12 -12 -11 -10 -9
-0 0 1 0 0 0 -0 -1 -1 -2 -2 -3 -5 -6 -8 -10 -10 -10 -5 -4 -4 -5 -5 -5 -4 -3 -3 -4 -4 -5 -5 -5 -5 -7 -8 -8 -10 -11 -12 -11 -11 -8 -8
2 1 1 1 0 -0 -1 -1 -1 -1 -1 -2 -2 -4 -7 -8 -7 -9 -6 -6 -7 -7 -7 -7 -6 -5 -4 -4 -4 -4 -4 -5 -8 -7 -9 -10 -11 -12 -11 -11 -9 -7 -6
1 2 1 0 0 -0 -1 -1 -0 -0 -1 -1 -3 -3 -4 -5 -6 -7 -7 -7 -8 -9 -8 -8 -7 -7 -6 -5 -6 -6 -6 -7 -8 -9 -9 -11 -12 -11 -11 -10 -8 -7 -7
1 2 1 1 1 2 0 1 1 0 -1 -2 -3 -4 -5 -6 -8 -8 -9 -9 -9 -9 -8 -7 -9 -9 -9 -8 -7 -7 -8 -8 -8 -9 -10 -12 -11 -11 -11 -9 -7 -7 -7
1 1 1 1 1 2 2 2 2 1 -2 -3 -4 -6 -10 -8 -9 -9 -8 -8 -7 -7 -7 -7 -8 -9 -9 -8 -7 -7 -8 -9 -9 -9 -10 -11 -11 -11 -11 -9 -7 -8 -8
1 0 1 2 2 1 2 1 -0 -1 -3 -4 -6 -8 -9 -9 -9 -8 -7 -6 -6 -6 -7 -7 -7 -9 -9 -7 -6 -6 -7 -7 -7 -8 -9 -10 -10 -10 -10 -9 -9 -9 -9
0 -1 -1 -0 -0 -0 -1 -2 -2 -3 -4 -6 -7 -9 -9 -8 -8 -6 -6 -6 -6 -5 -5 -5 -5 -5 -5 -5 -5 -6 -7 -6 -7 -8 -9 -9 -9 -9 -9 -10 -10 -10 -11
-1 -1 -1 -1 -2 -2 -2 -3 -3 -5 -6 -8 -9 -9 -8 -7 -7 -6 -6 -5 -5 -6 -6 -6 -7 -7 -7 -7 -5 -4 -4 -6 -8 -16 -11 -8 -8 -8 -9 -10 -10 -11 -11
-1 -1 -1 -2 -2 -2 -3 -3 -4 -5 -8 -9 -9 -8 -8 -7 -6 -6 -6 -5 -5 -7 -6 -7 -6 -7 -8 -8 -7 -5 -8 -10 -15 -17 -17 -10 -8 -9 -10 -10 -10 -10 -11
Wind_Speed
2 2 3 6 11 11 9 10 10 10 10 12 12 11 11 12 23 21 15 15 14 13 11 9 8 9 7 8 8 8 8 8 9 4 3 3 6 10 9 8 9 9 10
3 4 3 6 13 8 6 9 10 8 8 9 11 10 8 10 17 14 14 13 12 10 8 6 5 6 8 10 8 8 6 6 7 6 6 3 10 11 11 11 8 10 11
4 3 2 8 6 7 10 8 6 7 6 8 15 13 11 11 14 17 17 18 14 10 8 5 7 5 5 6 7 6 8 7 6 7 6 5 7 8 11 11 10 8 9
5 4 6 8 8 8 9 9 6 5 8 9 12 12 10 11 15 14 11 9 10 9 8 8 8 8 7 7 6 6 7 7 11 9 6 5 5 8 7 4 3 5 4
8 8 9 9 8 9 10 11 11 11 12 10 9 9 8 7 7 7 6 8 9 9 8 9 8 6 8 8 6 6 5 5 5 8 7 7 6 5 6 6 3 4 8
10 11 12 12 9 9 10 10 11 10 9 10 10 8 8 7 7 6 7 9 11 10 8 7 7 8 10 11 8 5 6 8 7 5 6 8 6 3 5 5 5 4 5
12 13 13 13 11 10 9 9 9 9 8 7 6 6 7 5 6 7 7 6 8 10 10 13 10 9 8 7 6 5 5 4 4 6 7 6 5 5 5 1 6 4 5
16 15 14 12 12 11 10 10 9 8 8 7 6 5 5 7 7 6 7 8 10 12 12 10 9 9 9 8 6 5 4 4 4 4 5 5 5 5 5 6 8 10 10
17 16 14 18 16 15 13 13 12 12 11 11 11 9 9 10 8 10 9 10 11 12 11 10 10 9 7 4 2 2 2 1 2 2 2 3 6 9 9 5 5 8 10
17 18 21 20 16 16 14 13 14 14 13 12 12 11 13 14 13 12 12 12 13 12 12 11 9 7 4 1 1 1 1 2 2 4 7 8 8 10 9 9 10 9 11
23 21 21 18 14 11 12 14 13 15 14 14 12 13 15 15 14 14 13 14 13 11 11 9 7 4 2 2 4 4 4 6 6 3 6 7 7 6 7 12 12 10 9
22 21 19 15 12 13 13 14 15 15 17 17 19 20 18 17 14 15 14 12 11 8 7 4 4 6 8 8 7 7 6 6 5 6 4 6 7 8 8 10 13 10 8
17 12 12 14 15 13 8 14 18 18 17 16 14 14 12 11 8 6 3 1 2 5 6 7 6 3 3 2 3 2 3 2 4 5 6 7 9 9 9 8 8 10 11
25 26 25 24 23 23 22 20 19 17 16 15 13 12 11 9 8 8 6 6 6 4 4 5 4 2 2 4 4 4 4 3 3 4 6 6 6 7 6 7 7 7 8
26 27 28 29 29 29 28 26 24 24 20 18 16 15 12 11 10 10 9 6 4 3 2 3 4 3 3 3 4 4 3 4 4 4 4 5 6 7 7 8 7 7 8
33 32 31 31 30 30 29 28 24 21 17 15 14 10 10 12 11 9 8 7 6 7 6 5 4 5 4 3 3 4 5 6 4 4 5 6 6 7 8 7 8 8 8
26 28 30 30 28 26 24 20 21 21 18 16 13 12 12 11 10 10 9 10 11 13 5 5 4 3 3 3 4 5 5 6 5 5 6 7 8 8 9 8 8 8 8
28 27 24 21 17 15 13 13 12 12 11 13 12 11 11 10 10 10 13 12 9 9 6 4 4 3 3 4 5 5 6 6 5 6 7 8 8 9 8 8 8 8 8
16 15 14 13 12 12 11 10 9 8 7 7 7 8 10 10 11 11 12 6 5 4 5 5 5 5 4 5 6 7 7 6 5 6 7 8 8 8 8 9 9 10 10
14 15 12 11 11 9 7 6 5 4 4 4 4 4 4 10 6 5 5 4 4 4 4 5 6 5 5 5 6 6 5 6 6 7 9 9 9 8 8 9 8 8 9
8 8 8 5 5 6 5 6 3 1 2 2 2 1 2 3 1 3 3 4 4 4 5 5 5 6 5 6 6 5 5 6 7 8 8 8 8 8 9 8 8 8 9
4 4 3 3 4 6 6 5 2 2 2 1 1 1 3 2 1 3 4 5 5 5 5 4 4 5 4 4 4 3 4 5 7 8 9 9 9 9 9 8 8 9 9
2 2 3 3 5 6 5 4 3 2 3 3 2 1 0 1 2 3 3 4 5 4 4 4 4 4 5 5 6 6 5 6 7 9 9 9 9 9 9 8 9 9 10
3 2 3 3 4 5 4 3 4 5 5 4 3 3 2 3 3 4 3 4 4 4 5 6 6 7 7 7 7 8 9 7 10 9 10 8 8 10 9 9 9 10 11
3 3 4 5 5 5 5 5 5 4 4 4 4 3 3 3 2 3 4 2 4 5 7 8 7 7 8 10 10 9 16 16 14 13 8 8 8 9 9 9 10 10 11
3 4 5 5 6 6 6 6 5 5 5 5 5 5 5 4 4 3 1 2 3 5 7 7 8 9 9 6 7 11 12 12 12 10 9 6 7 8 9 9 10 10 11
Wind_Direction
156 98 64 78 123 104 120 127 135 130 139 139 149 139 140 171 181 178 193 203 194 205 204 218 224 231 241 247 243 235 229 217 224 176 173 210 180 162 171 183 196 213 219
155 114 94 139 145 119 92 154 143 141 136 134 158 144 142 156 178 180 175 187 195 196 210 219 226 247 257 241 228 220 218 214 214 214 205 204 210 206 198 204 170 225 223
162 122 80 151 158 158 164 160 172 187 180 176 156 139 129 147 161 171 184 189 186 189 208 220 231 244 246 219 202 223 220 230 242 246 212 175 189 186 196 202 204 218 225
179 158 136 134 145 149 149 160 170 161 187 160 173 177 165 157 177 182 172 183 195 195 218 225 235 242 242 218 213 240 248 246 240 230 203 180 186 181 176 160 197 202 243
192 176 163 150 135 134 135 130 133 125 131 145 151 158 162 156 164 177 187 195 204 223 230 226 233 245 234 236 235 244 234 220 203 207 184 175 167 178 198 227 213 242 276
192 180 178 158 154 147 142 137 130 126 130 127 134 151 176 183 193 204 219 217 219 217 198 199 224 232 228 231 236 213 189 165 155 158 161 177 197 197 243 252 273 270 256
196 185 177 169 162 157 156 155 157 151 143 129 125 138 160 158 176 184 190 195 199 197 198 191 181 186 179 175 164 156 161 172 181 188 188 179 228 242 265 330 288 301 275
196 189 179 177 175 171 164 168 168 171 169 155 159 186 193 177 167 175 201 198 182 180 176 178 181 177 170 159 169 182 196 206 208 216 218 223 239 253 271 289 298 315 315
196 194 189 198 199 189 192 191 193 190 184 183 189 196 189 172 173 167 173 167 176 175 178 179 167 161 163 167 185 258 271 233 199 199 204 258 282 287 286 298 271 307 295
189 191 198 207 198 199 200 195 192 193 182 187 186 185 178 167 171 174 178 173 172 172 170 170 168 171 167 186 212 251 200 177 206 283 292 295 297 296 295 309 304 304 297
189 195 204 209 209 204 203 186 199 193 177 174 178 163 168 166 172 182 187 176 168 171 171 170 176 171 175 229 252 227 237 269 278 302 309 318 324 329 326 316 307 306 303
194 197 198 201 189 175 175 173 180 174 169 159 158 157 152 153 156 155 153 157 137 147 148 172 245 277 277 277 282 285 270 277 290 341 331 315 316 314 318 313 306 303 288
166 151 145 124 106 96 95 137 136 134 121 112 105 109 107 106 107 114 120 111 278 275 267 278 296 320 12 307 285 285 15 326 309 302 290 297 308 310 336 330 325 317 332
129 128 126 125 121 114 113 110 111 110 109 107 109 110 113 106 100 101 100 100 75 87 90 78 76 40 324 353 20 5 338 321 312 307 304 315 328 333 334 324 326 317 313
119 115 114 112 111 109 107 103 99 93 86 85 83 81 75 89 89 78 82 99 106 110 84 48 55 42 44 18 7 24 6 3 360 350 339 337 335 338 331 330 326 325 317
110 112 113 114 113 111 107 102 91 84 81 78 79 77 88 80 79 81 79 78 84 93 76 73 56 52 43 33 29 12 15 21 6 2 355 348 343 342 328 336 328 328 324
109 112 112 110 107 105 100 91 90 85 75 70 72 72 67 67 65 61 63 69 71 70 66 59 57 58 52 38 29 14 5 337 9 351 344 338 335 332 335 326 328 328 323
107 108 112 111 100 95 97 92 87 86 79 73 63 52 45 46 49 59 70 60 37 45 49 45 32 27 16 9 357 345 336 338 330 334 336 332 331 328 329 326 328 322 326
110 116 118 115 118 117 108 103 96 85 74 74 64 44 36 34 39 50 67 59 46 27 17 6 9 1 346 331 326 327 331 317 324 335 327 327 328 330 328 326 326 326 338
120 131 124 126 120 118 116 113 97 70 71 58 30 13 8 32 25 22 30 31 14 360 347 347 337 338 332 325 325 327 334 327 322 326 328 330 329 327 320 322 321 322 324
120 124 134 137 156 171 154 143 134 90 18 343 357 296 12 87 24 8 8 349 341 326 322 315 323 318 334 332 327 331 326 322 322 325 326 324 324 323 323 323 317 319 323
133 152 157 178 177 177 188 184 263 285 281 234 190 330 67 80 352 342 337 334 328 331 321 320 318 313 316 317 343 341 333 323 318 321 326 327 327 328 323 320 318 320 321
142 175 210 221 201 174 165 213 270 261 204 187 194 218 316 281 311 328 336 337 340 343 334 333 321 310 301 306 309 311 311 311 325 329 328 328 329 321 326 328 319 321 316
264 254 205 189 189 195 226 218 223 191 183 197 208 220 251 284 299 305 339 335 346 347 346 337 325 317 304 303 296 302 299 278 324 326 322 325 327 325 322 323 321 316 321
250 210 196 207 217 206 215 201 192 195 197 206 224 241 261 273 273 297 310 338 353 353 334 332 323 307 302 286 276 280 274 289 309 320 329 318 319 327 329 325 320 321 320
215 206 214 217 210 202 192 193 201 210 215 225 234 249 246 249 265 288 243 324 341 337 349 341 332 330 331 326 274 256 280 302 316 329 332 332 327 327 322 322 325 328 324
Height
1506 1504 1503 1502 1499 1500 1500 1501 1502 1503 1504 1507 1510 1512 1515 1518 1521 1527 1533 1536 1540 1544 1547 1548 1547 1548 1549 1550 1550 1552 1553 1553 1554 1555 1557 1556 1557 1559 1559 1560 1560 1562 1563
1506 1505 1504 1504 1502 1502 1504 1504 1505 1506 1508 1509 1512 1515 1517 1520 1524 1527 1531 1534 1539 1541 1543 1545 1545 1547 1546 1546 1548 1549 1551 1551 1554 1554 1555 1554 1555 1556 1557 1559 1561 1559 1561
1506 1506 1504 1504 1504 1504 1505 1506 1507 1508 1510 1511 1514 1517 1519 1521 1524 1527 1530 1534 1535 1538 1541 1542 1544 1544 1544 1547 1547 1547 1548 1550 1551 1553 1554 1554 1554 1554 1555 1556 1557 1558 1559
1505 1507 1506 1507 1506 1506 1506 1507 1509 1509 1511 1513 1516 1518 1521 1523 1526 1528 1529 1531 1534 1538 1539 1540 1541 1542 1543 1544 1544 1545 1546 1547 1548 1551 1551 1552 1553 1553 1555 1558 1557 1557 1557
1506 1507 1507 1507 1508 1509 1509 1509 1510 1511 1512 1515 1517 1519 1522 1524 1526 1527 1529 1531 1534 1536 1537 1539 1540 1541 1542 1543 1544 1544 1544 1545 1546 1547 1549 1551 1552 1553 1553 1553 1554 1554 1552
1505 1506 1507 1508 1510 1511 1512 1513 1513 1515 1515 1517 1519 1521 1522 1524 1526 1528 1529 1530 1531 1532 1534 1536 1537 1539 1540 1541 1542 1542 1543 1544 1545 1547 1549 1549 1548 1550 1550 1551 1551 1551 1553
1504 1505 1507 1508 1510 1512 1514 1515 1515 1516 1517 1519 1520 1520 1521 1523 1524 1527 1528 1529 1530 1532 1532 1534 1536 1537 1538 1540 1541 1542 1543 1544 1544 1545 1545 1546 1546 1547 1547 1548 1547 1548 1549
1502 1504 1506 1509 1510 1511 1512 1514 1515 1516 1518 1519 1520 1521 1522 1522 1523 1525 1527 1528 1529 1531 1533 1535 1536 1536 1538 1539 1540 1540 1541 1542 1542 1542 1543 1543 1543 1544 1544 1544 1544 1545 1545
1500 1504 1506 1506 1507 1508 1510 1512 1513 1514 1516 1517 1518 1520 1521 1522 1523 1524 1526 1527 1528 1530 1532 1533 1535 1536 1537 1539 1539 1540 1540 1540 1541 1541 1541 1541 1541 1541 1540 1541 1545 1543 1544
1498 1500 1499 1503 1505 1507 1508 1510 1511 1512 1513 1515 1517 1518 1520 1521 1522 1524 1526 1527 1528 1530 1532 1533 1535 1536 1537 1538 1538 1539 1540 1540 1539 1539 1539 1539 1538 1537 1538 1535 1537 1538 1539
1491 1495 1499 1502 1503 1504 1506 1508 1510 1511 1512 1514 1516 1518 1520 1522 1522 1523 1525 1526 1529 1530 1532 1533 1534 1536 1536 1537 1537 1537 1538 1538 1539 1538 1538 1538 1538 1537 1535 1531 1532 1533 1534
1491 1494 1497 1500 1501 1502 1504 1507 1508 1509 1511 1512 1515 1517 1519 1521 1524 1524 1525 1527 1529 1531 1532 1533 1534 1535 1535 1536 1536 1535 1536 1538 1537 1536 1538 1539 1538 1537 1533 1530 1528 1527 1527
1491 1495 1499 1502 1501 1505 1506 1508 1510 1513 1516 1518 1520 1519 1523 1524 1525 1526 1527 1528 1529 1531 1532 1533 1532 1533 1535 1535 1535 1536 1536 1539 1539 1539 1537 1536 1535 1532 1527 1528 1527 1525 1523
1493 1498 1500 1501 1504 1509 1511 1516 1517 1519 1521 1523 1524 1525 1525 1525 1525 1526 1527 1527 1528 1530 1532 1532 1533 1535 1535 1536 1536 1535 1536 1534 1534 1534 1536 1532 1531 1530 1528 1527 1526 1525 1525
1502 1505 1508 1511 1513 1515 1518 1522 1523 1525 1526 1526 1529 1529 1528 1527 1528 1528 1529 1529 1530 1531 1532 1532 1533 1534 1536 1537 1535 1534 1534 1534 1534 1533 1533 1531 1530 1528 1527 1525 1524 1523 1523
1509 1513 1516 1518 1520 1522 1525 1527 1529 1530 1532 1531 1531 1533 1532 1531 1531 1531 1532 1531 1531 1532 1534 1535 1536 1535 1536 1537 1536 1536 1534 1533 1533 1532 1531 1530 1529 1527 1525 1525 1524 1521 1520
1518 1520 1524 1525 1527 1529 1531 1533 1533 1535 1536 1536 1536 1536 1535 1535 1534 1533 1533 1534 1533 1533 1537 1537 1537 1537 1536 1536 1535 1535 1533 1533 1531 1531 1530 1529 1528 1526 1525 1523 1522 1520 1519
1526 1528 1530 1532 1533 1536 1538 1538 1540 1541 1541 1539 1539 1539 1537 1536 1535 1536 1536 1535 1537 1537 1538 1538 1538 1537 1537 1536 1535 1535 1534 1533 1532 1530 1529 1528 1526 1525 1524 1522 1520 1518 1517
1533 1534 1535 1536 1538 1539 1541 1542 1543 1544 1544 1543 1540 1539 1538 1537 1537 1537 1536 1539 1539 1539 1539 1538 1537 1536 1536 1536 1535 1534 1532 1531 1529 1529 1528 1526 1524 1523 1521 1520 1518 1516 1514
1535 1536 1538 1539 1540 1541 1542 1543 1544 1544 1545 1544 1544 1543 1542 1539 1542 1541 1541 1540 1540 1540 1539 1538 1537 1536 1535 1534 1534 1533 1532 1531 1530 1529 1526 1524 1522 1521 1520 1518 1517 1516 1514
1538 1538 1539 1540 1540 1541 1542 1543 1544 1544 1544 1544 1543 1541 1541 1543 1543 1542 1542 1541 1540 1539 1538 1537 1537 1536 1535 1534 1532 1531 1531 1531 1529 1528 1526 1524 1522 1520 1518 1516 1515 1514 1512
1538 1538 1539 1539 1539 1539 1541 1542 1543 1543 1543 1543 1543 1541 1542 1543 1543 1542 1541 1540 1539 1537 1536 1535 1535 1535 1534 1533 1532 1531 1531 1530 1528 1526 1524 1522 1520 1517 1516 1515 1513 1512 1510
1537 1538 1537 1538 1539 1538 1540 1542 1542 1542 1543 1543 1543 1543 1543 1542 1542 1541 1540 1539 1538 1536 1535 1534 1534 1533 1533 1532 1531 1531 1530 1529 1526 1524 1521 1519 1518 1516 1513 1512 1511 1510 1508
1537 1536 1536 1536 1537 1538 1539 1540 1540 1540 1541 1542 1542 1542 1542 1541 1540 1539 1539 1538 1536 1535 1535 1534 1533 1532 1531 1530 1530 1529 1528 1526 1523 1521 1517 1516 1515 1514 1512 1511 1509 1508 1506
1535 1535 1535 1535 1537 1537 1537 1538 1539 1540 1540 1541 1540 1540 1540 1539 1539 1538 1538 1537 1536 1535 1534 1533 1532 1530 1529 1527 1526 1526 1522 1521 1519 1516 1514 1514 1513 1511 1511 1509 1507 1505 1504
1533 1533 1534 1534 1535 1536 1536 1537 1538 1538 1539 1539 1539 1538 1538 1538 1537 1537 1536 1536 1535 1534 1533 1532 1530 1527 1524 1523 1522 1520 1519 1517 1515 1514 1512 1511 1512 1511 1510 1507 1505 1504 1503